Regional Weather Roundup
Issued by NWS Bismarck, ND

Home | Current Version | Previous Version | Text Only | Print | Product List | Glossary On
Versions: 1 2 3 4 5 6 7 8 9 10 11 12 13 14 15 16 17 18 19 20 21 22 23 24 25 26 27 28 29 30 31 32 33 34 35 36 37 38 39 40 41 42 43 44 45 46 47 48 49 50
000
ASUS43 KBIS 221520
RWRBIS

NWR BROADCAST TEXT
NATIONAL WEATHER SERVICE BISMARCK ND
900 AM CST MON DEC 22 2014

NOTE: "FAIR" INDICATES FEW OR NO CLOUDS BELOW 12,000 FEET WITH NO
SIGNIFICANT WEATHER AND/OR OBSTRUCTIONS TO VISIBILITY.


CITY           SKY/WX    TMP DP  RH WIND       PRES   REMARKS
WILLISTON      CLOUDY    27  23  85 NW17G26   29.55R WCI  14
MINOT          CLOUDY    28  26  92 N6        29.50S FOG
MINOT AFB      FRZ DRZL  28  28 100 NE6       29.51R
BISMARCK       CLOUDY    28  28 100 NE5       29.49R FOG
DICKINSON      CLOUDY    28  24  85 NW22      29.47S FOG     WCI  14
GARRISON         N/A     28  27  96 NE3       29.48R
HETTINGER ARPT LGT SNOW  32  29  88 NW16G31   29.49R FOG
JAMESTOWN      FOG       32  32 100 NE6       29.45S VSB 1/4
BEACH          MIX PCPN  27  27 100 NW23G31   29.55R WCI  12
CARRINGTON     FOG       32  32 100 MISG      29.48S VSB 1
CROSBY         FOG       27  27 100 NW14      29.56R VSB 3/4 WCI  15
HARVEY         CLOUDY    30  30 100 NE5       29.49R FOG
HAZEN          FOG       28  28 100 CALM      29.49S VSB 1/2
LINTON         CLOUDY    27  27 100 N5        29.46R FOG
MANDAN         FOG       28  27  93 N3        29.47R VSB 1/4
OAKES          MIX PCPN  32  32 100 E7        29.44S VSB 1/2
RUGBY          CLOUDY    28  28 100 NE6       29.51S FOG
STANLEY        FOG       27  27 100 N5        29.49S VSB<1/4
TIOGA          MIX PCPN  27  27 100 N12       29.53R VSB 1   WCI  16
WATFORD CITY   CLOUDY    27  25  93 NW14G21   29.52R WCI  15
$$

CITY           SKY/WX    TMP DP  RH WIND       PRES   REMARKS
GRAND FORKS    CLOUDY    35  34  96 E9        29.53S FOG
GRAND FORKS AF CLOUDY    35  35 100 E6        29.53S FOG
DEVILS LAKE    CLOUDY    30  27  86 NE7       29.49S
FARGO          CLOUDY    38  37  97 SE7       29.50S FOG
CANDO          CLOUDY    30  30 100 NE3       29.52F FOG
CAVALIER       FOG       32  32 100 E7        29.57R VSB 1
GWINNER        CLOUDY    36  36 100 SE9       29.46S VSB 0
LANGDON        FOG       32  32 100 E8        29.53R VSB 1/4
ROLLA          CLOUDY    28  28 100 E6        29.53S
WALHALLA         N/A     32  32 100 E6        29.57S FOG
$$

CITY           SKY/WX    TMP DP  RH WIND       PRES   REMARKS
ABERDEEN       FOG       33  32  96 CALM      29.43S VSB 1/4
MOBRIDGE       CLOUDY    33  32  96 N5        29.42R FOG
BUFFALO          N/A     35  27  72 NW32G49   29.44F
RAPID CITY     CLOUDY    41  20  43 NW24G38   29.54F
GLASGOW        CLOUDY    32  26  78 NW24G32   29.64R WCI  19
SIDNEY         CLOUDY    27  21  80 NW20      29.59R WCI  13
WOLF POINT     LGT SNOW  29  25  85 NW12      29.64R VSB 3/4 WCI  19
GLENDIVE       CLOUDY    30  27  86 NW14G21   29.60R WCI  20
MILES CITY     PTCLDY    34  26  72 NW15      29.63R
BAKER          LGT SNOW  32  30  92 NW29G43   29.54S VSB 3/4 WCI  18
$$

CITY           SKY/WX    TMP DP  RH WIND       PRES   REMARKS
BILLINGS       MOCLDY    35  26  69 NW18      29.76S
GREAT FALLS    MOCLDY    28  26  92 SW10      29.78S WCI  19
REGINA         FOG       23  23 100 N12       29.62R VSB 5/8 WCI  12
ESTEVAN        FOG       28  27  93 NE6       29.55R VSB 1/4
$$




USA.gov is the U.S. government's official web portal to all federal, state and local government web resources and services.